DW5656 Weather Reports


time (UTC)temp
C
wind
direction
speed
KPH
gust
KPH
rain 1hr
cm
rain 24hr
cm
rain mn
cm
humidity
%
barometer
mb
20200922212913 22 222 6.4 11.3 0.00 0.00 0.00 67 1013.9
20200922212021 22 249 8.0 14.5 0.00 0.00 0.00 67 1014.0
20200922211113 22 245 8.0 12.9 0.00 0.00 0.00 66 1014.0
20200922210221 22 260 6.4 16.1 0.00 0.00 0.00 66 1014.0
20200922205313 23 244 6.4 14.5 0.00 0.00 0.00 65 1014.0
20200922204413 23 254 9.7 17.7 0.00 0.00 0.00 64 1013.8
20200922203513 23 266 11.3 25.7 0.00 0.00 0.00 64 1013.7
20200922202613 23 269 12.9 24.1 0.00 0.00 0.00 63 1013.7
20200922201715 23 264 9.7 24.1 0.00 0.00 0.00 62 1013.7
20200922200820 23 268 9.7 22.5 0.00 0.00 0.00 61 1013.7
20200922195913 23 259 8.0 22.5 0.00 0.00 0.00 60 1013.4
20200922195013 23 243 6.4 14.5 0.00 0.00 0.00 60 1013.1
20200922194114 23 243 8.0 20.9 0.00 0.00 0.00 59 1013.1
20200922193215 24 243 9.7 22.5 0.00 0.00 0.00 59 1013.1
20200922192313 24 244 8.0 22.5 0.00 0.00 0.00 59 1013.1
20200922191415 24 257 8.0 17.7 0.00 0.00 0.00 57 1013.0
20200922190513 25 253 8.0 19.3 0.00 0.00 0.00 56 1013.0
20200922185614 25 260 6.4 22.5 0.00 0.00 0.00 55 1012.9
20200922184713 25 266 4.8 14.5 0.00 0.00 0.00 54 1012.9
20200922183821 25 257 8.0 20.9 0.00 0.00 0.00 54 1012.6
20200922182913 25 241 11.3 24.1 0.00 0.00 0.00 53 1012.5
20200922182014 25 240 11.3 24.1 0.00 0.00 0.00 53 1012.6
20200922181114 26 244 9.7 24.1 0.00 0.00 0.00 53 1012.5
20200922180215 26 245 11.3 20.9 0.00 0.00 0.00 53 1012.2
20200922175312 26 244 9.7 25.7 0.00 0.00 0.00 52 1012.2
20200922174412 26 223 11.3 25.7 0.00 0.00 0.00 53 1012.1
20200922173515 26 218 11.3 24.1 0.00 0.00 0.00 53 1012.0
20200922172612 27 219 9.7 27.4 0.00 0.00 0.00 52 1011.8
20200922171712 27 221 9.7 20.9 0.00 0.00 0.00 51 1011.7
20200922170813 27 224 9.7 20.9 0.00 0.00 0.00 50 1011.6
20200922165912 27 210 11.3 22.5 0.00 0.00 0.00 50 1011.6
20200922165014 27 217 9.7 20.9 0.00 0.00 0.00 49 1011.6
20200922164113 28 230 8.0 19.3 0.00 0.00 0.00 49 1011.6
20200922163212 28 215 9.7 24.1 0.00 0.00 0.00 49 1011.7
20200922162313 28 227 9.7 24.1 0.00 0.00 0.00 48 1011.9
20200922161414 28 218 9.7 25.7 0.00 0.00 0.00 48 1012.0
20200922160512 28 211 9.7 22.5 0.00 0.00 0.00 48 1012.1
20200922155617 28 209 9.7 22.5 0.00 0.00 0.00 49 1012.1
20200922154712 28 218 9.7 19.3 0.00 0.00 0.00 49 1012.1
20200922153816 28 230 9.7 19.3 0.00 0.00 0.00 48 1012.2
20200922152912 28 226 8.0 19.3 0.00 0.00 0.00 47 1012.2
20200922152015 28 238 8.0 16.1 0.00 0.00 0.00 46 1012.3
20200922151112 28 222 8.0 16.1 0.00 0.00 0.00 46 1012.3
20200922150215 28 225 6.4 16.1 0.00 0.00 0.00 46 1012.4
20200922145312 28 228 6.4 12.9 0.00 0.00 0.00 46 1012.5
20200922144412 28 224 4.8 16.1 0.00 0.00 0.00 47 1012.5
20200922143512 28 186 4.8 11.3 0.00 0.00 0.00 46 1012.5
20200922142614 28 230 4.8 14.5 0.00 0.00 0.00 47 1012.6
20200922141712 28 206 8.0 12.9 0.00 0.00 0.00 46 1012.8
20200922140812 28 211 4.8 17.7 0.00 0.00 0.00 45 1012.8
20200922135912 28 302 3.2 11.3 0.00 0.00 0.00 45 1012.9
20200922135012 28 271 4.8 6.4 0.00 0.00 0.00 45 1013.1
20200922134112 28 208 6.4 16.1 0.00 0.00 0.00 45 1013.2
20200922133212 28 156 6.4 16.1 0.00 0.00 0.00 46 1013.1
20200922132315 28 182 6.4 16.1 0.00 0.00 0.00 45 1013.5
20200922131411 28 190 6.4 17.7 0.00 0.00 0.00 46 1013.8
20200922130518 28 159 4.8 14.5 0.00 0.00 0.00 45 1013.9
20200922125612 28 220 3.2 14.5 0.00 0.00 0.00 44 1014.1
20200922124712 28 265 4.8 12.9 0.00 0.00 0.00 44 1014.1
20200922123814 28 245 3.2 12.9 0.00 0.00 0.00 44 1014.1
20200922122914 27 223 4.8 11.3 0.00 0.00 0.00 45 1014.2
20200922122016 27 207 4.8 12.9 0.00 0.00 0.00 45 1014.4
20200922121112 27 287 4.8 8.0 0.00 0.00 0.00 46 1014.4
20200922120215 27 253 4.8 11.3 0.00 0.00 0.00 46 1014.5
20200922115312 27 261 4.8 14.5 0.00 0.00 0.00 45 1014.5
20200922114412 27 136 1.6 6.4 0.00 0.00 0.00 46 1014.5
20200922113511 27 281 3.2 4.8 0.00 0.00 0.00 48 1014.4
20200922112611 27 257 1.6 11.3 0.00 0.00 0.00 47 1014.5
20200922111711 27 153 3.2 8.0 0.00 0.00 0.00 48 1014.6
20200922110814 26 164 3.2 9.7 0.00 0.00 0.00 49 1014.6
20200922105911 26 161 1.6 9.7 0.00 0.00 0.00 51 1014.7
20200922105011 26 72 4.8 11.3 0.00 0.00 0.00 52 1014.8
20200922104113 26 106 3.2 9.7 0.00 0.00 0.00 52 1014.7
20200922103214 26 114 3.2 9.7 0.00 0.00 0.00 52 1014.8
20200922102312 26 55 1.6 9.7 0.00 0.00 0.00 53 1014.8
20200922101411 25 21 3.2 6.4 0.00 0.00 0.00 55 1014.9
20200922100518 25 64 3.2 9.7 0.00 0.00 0.00 56 1015.1
20200922095611 24 102 4.8 11.3 0.00 0.00 0.00 57 1015.2
20200922094711 24 64 4.8 9.7 0.00 0.00 0.00 59 1015.2
20200922093829 23 40 4.8 11.3 0.00 0.00 0.00 61 1015.2
20200922092940 23 36 4.8 8.0 0.00 0.00 0.00 61 1015.3
20200922092011 23 25 6.4 9.7 0.00 0.00 0.00 63 1015.1
20200922091111 22 2 6.4 11.3 0.00 0.00 0.00 64 1015.2
20200922090212 22 33 4.8 12.9 0.00 0.00 0.00 64 1015.2
20200922085311 22 349 4.8 9.7 0.00 0.00 0.00 65 1015.1
20200922084414 22 349 6.4 9.7 0.00 0.00 0.00 65 1015.1
20200922083517 21 359 6.4 11.3 0.00 0.00 0.00 65 1014.9
20200922082616 21 12 4.8 11.3 0.00 0.00 0.00 66 1015.0
20200922081711 21 2 4.8 9.7 0.00 0.00 0.00 67 1014.8
20200922080811 21 359 4.8 9.7 0.00 0.00 0.00 67 1014.9
20200922075912 21 353 4.8 8.0 0.00 0.00 0.00 68 1014.8
20200922075013 20 355 6.4 9.7 0.00 0.00 0.00 68 1014.7
20200922074112 20 358 4.8 11.3 0.00 0.00 0.00 68 1014.7
20200922073211 20 2 4.8 8.0 0.00 0.00 0.00 68 1014.7
20200922072317 20 15 4.8 8.0 0.00 0.00 0.00 68 1014.6
20200922071413 20 17 4.8 8.0 0.00 0.00 0.00 68 1014.6
20200922070512 20 15 4.8 11.3 0.00 0.00 0.00 69 1014.6
20200922065612 20 21 6.4 11.3 0.00 0.00 0.00 69 1014.4
20200922064711 20 15 6.4 11.3 0.00 0.00 0.00 68 1014.4
20200922063812 20 22 4.8 9.7 0.00 0.00 0.00 68 1014.4
20200922062911 20 24 4.8 11.3 0.00 0.00 0.00 68 1014.3
20200922062011 20 14 4.8 9.7 0.00 0.00 0.00 68 1014.3
20200922061111 20 12 3.2 9.7 0.00 0.00 0.00 67 1014.3
20200922060211 20 360 3.2 4.8 0.00 0.00 0.00 67 1014.3
20200922055310 20 12 3.2 8.0 0.00 0.00 0.00 67 1014.2
20200922054411 20 20 3.2 6.4 0.00 0.00 0.00 66 1014.2
20200922053513 21 10 3.2 8.0 0.00 0.00 0.00 66 1014.1
20200922052610 21 360 3.2 6.4 0.00 0.00 0.00 65 1014.1
20200922051711 21 51 4.8 8.0 0.00 0.00 0.00 65 1014.1
20200922050811 21 29 4.8 9.7 0.00 0.00 0.00 64 1014.0
20200922045911 21 20 4.8 8.0 0.00 0.00 0.00 64 1013.9
20200922045011 21 19 4.8 8.0 0.00 0.00 0.00 64 1013.9
20200922044110 21 30 4.8 8.0 0.00 0.00 0.00 64 1013.9
20200922043210 21 10 6.4 9.7 0.00 0.00 0.00 63 1013.9
20200922042310 21 16 6.4 14.5 0.00 0.00 0.00 62 1013.9
20200922041413 21 42 4.8 11.3 0.00 0.00 0.00 62 1013.9
20200922040512 21 60 4.8 8.0 0.00 0.00 0.00 62 1013.8
20200922035611 21 55 3.2 9.7 0.00 0.00 0.00 62 1013.8
20200922034711 21 58 3.2 8.0 0.00 0.00 0.00 62 1013.7
20200922033816 21 58 3.2 8.0 0.00 0.00 0.00 62 1013.6
20200922032910 22 48 3.2 8.0 0.00 0.00 0.00 61 1013.9
20200922032010 22 58 4.8 8.0 0.00 0.00 0.00 61 1013.9
20200922031110 22 71 3.2 8.0 0.00 0.00 0.00 61 1013.9
20200922030216 22 60 3.2 6.4 0.00 0.00 0.00 61 1013.9
20200922025310 22 53 4.8 8.0 0.00 0.00 0.00 60 1014.0
20200922024411 22 44 3.2 8.0 0.00 0.00 0.00 60 1014.0
20200922023514 22 23 1.6 8.0 0.00 0.00 0.00 60 1014.1
20200922022613 22 41 3.2 6.4 0.00 0.00 0.00 60 1014.1
20200922021711 22 55 6.4 12.9 0.00 0.00 0.00 60 1014.2
20200922020811 22 53 6.4 12.9 0.00 0.00 0.00 59 1014.2
20200922015915 22 43 4.8 9.7 0.00 0.00 0.00 60 1014.2
20200922015018 22 42 4.8 8.0 0.00 0.00 0.00 60 1014.2
20200922014110 22 42 3.2 6.4 0.00 0.00 0.00 60 1014.3
20200922013210 22 53 3.2 8.0 0.00 0.00 0.00 60 1014.4
20200922012310 22 55 3.2 8.0 0.00 0.00 0.00 60 1014.4
20200922011410 22 51 3.2 8.0 0.00 0.00 0.00 59 1014.5
20200922010510 23 39 3.2 6.4 0.00 0.00 0.00 56 1014.5
20200922005610 23 45 3.2 6.4 0.00 0.00 0.00 55 1014.4
20200922004710 23 33 3.2 6.4 0.00 0.00 0.00 54 1014.5
20200922003811 23 19 4.8 6.4 0.00 0.00 0.00 54 1014.6
20200922002910 23 13 3.2 8.0 0.00 0.00 0.00 54 1014.7
20200922002020 23 18 3.2 6.4 0.00 0.00 0.00 54 1014.6
20200922001110 23 23 3.2 9.7 0.00 0.00 0.00 54 1014.6
20200922000210 23 18 4.8 8.0 0.00 0.00 0.00 55 1014.6
20200921235310 23 16 4.8 9.7 0.00 0.00 0.00 55 1014.7
20200921234410 23 18 3.2 8.0 0.00 0.00 0.00 54 1014.7
20200921233510 23 360 4.8 8.0 0.00 0.00 0.00 54 1014.8
20200921232610 23 357 4.8 8.0 0.00 0.00 0.00 54 1014.9
20200921231710 23 11 4.8 8.0 0.00 0.00 0.00 54 1014.8
20200921230810 23 22 4.8 8.0 0.00 0.00 0.00 53 1014.8
20200921225912 23 4 4.8 8.0 0.00 0.00 0.00 53 1014.8
20200921225010 24 345 4.8 9.7 0.00 0.00 0.00 52 1014.8
20200921224110 24 356 6.4 12.9 0.00 0.00 0.00 52 1014.9
20200921223216 24 340 6.4 14.5 0.00 0.00 0.00 52 1014.9
20200921222309 24 340 6.4 11.3 0.00 0.00 0.00 52 1014.9
20200921221409 24 339 4.8 11.3 0.00 0.00 0.00 53 1014.9
20200921220510 23 343 0.0 12.9 0.00 0.00 0.00 59 1014.9
20200921215610 23 0 0.0 0.0 0.00 0.00 0.00 70 1015.0
20200921214710 23 0 0.0 0.0 0.00 0.00 0.00 71 1015.0
20200921213810 23 256 0.0 3.2 0.00 0.00 0.00 71 1015.0